Flag for Switzerland Weather past 2 weeks in Bellinzona, Ticino, Switzerland

Now
51 °F

Cool.


Feels Like: 51 °F
Forecast: 54 / 78 °F
Wind: 1 mph from Southwest

Location: Locarno-Magadino


UV Index: 3 (Moderate)

Visibility: N/A


Pressure: 30.04 "Hg

Humidity: 88%

Dew point: 48 °F

Location of BellinzonaLocation

Historic Weather in Bellinzona

°F

Bellinzona temperature yesterday

Maximum temperature yesterday: 74 °F (at 5:00 PM)
Minimum temperature yesterday: 42 °F (at 6:00 AM)
Average temperature yesterday: 58 °F

Past Weeks' High & Low Weather Summary

 TemperatureHumidityPressure
High75 °F (Apr 10, 6:00 PM)100% (Apr 20, 1:00 AM)30.19 "Hg (Apr 20, 1:00 AM)
Low36 °F (Apr 17, 7:00 AM)12% (Apr 9, 1:00 PM)29.64 "Hg (Apr 18, 8:00 PM)
Average56 °F58%29.94 "Hg
* Reported Apr 9 7:00 AM — Apr 24 7:00 AM, Bellinzona, Weather by CustomWeather, © 2014

Note: Actual official high and low records may vary slightly from our data, if they occured in-between our weather recording intervals... More about our weather records

Advertising

Historic Weather Conditions — Data for Previous 24 hours

 ConditionsComfort  
Time TempWeatherWind HumidityBarometerVisibility
7:00 AM
Apr 24
45 °FCool.1 mph93%30.05 "HgN/A
6:00 AM47 °FCool.2 mph90%30.04 "HgN/A
5:00 AM46 °FCool.1 mph96%30.05 "HgN/A
4:00 AM48 °FCool.No wind93%30.05 "HgN/A
3:00 AM45 °FCool.1 mph97%30.05 "HgN/A
2:00 AM49 °FCool.1 mph92%30.06 "HgN/A
1:00 AM51 °FCool.1 mph90%30.05 "HgN/A
12:00 AM53 °FCool.1 mph84%30.04 "HgN/A
11:00 PM
Apr 23
54 °FCool.1 mph82%30.04 "HgN/A
10:00 PM63 °FMild.5 mph56%30.01 "HgN/A
9:00 PM65 °FMild.2 mph53%29.98 "HgN/A
8:00 PM69 °FMild.10 mph46%29.96 "HgN/A
7:00 PM71 °FMild.10 mph40%29.93 "HgN/A
6:00 PM72 °FMild.6 mph43%29.92 "HgN/A
5:00 PM74 °FMild.5 mph38%29.92 "HgN/A
4:00 PM72 °FMild.1 mph45%29.94 "HgN/A
3:00 PM67 °FMild.3 mph48%29.97 "HgN/A
2:00 PM67 °FMild.3 mph45%29.98 "HgN/A
1:00 PM69 °FMild.5 mph46%29.99 "HgN/A
12:00 PM67 °FMild.2 mph41%30.01 "HgN/A
11:00 AM62 °FRefreshingly cool.1 mph59%30.05 "HgN/A
10:00 AM57 °FCool.1 mph68%30.06 "HgN/A
9:00 AM54 °FCool.1 mph77%30.07 "HgN/A
8:00 AM49 °FCool.1 mph90%30.09 "HgN/A
Weather by CustomWeather, © 2014

See weather overview